GW2978 Weather Reports


time (UTC)temp
C
wind
direction
speed
KPH
gust
KPH
rain 1hr
cm
rain 24hr
cm
rain mn
cm
humidity
%
barometer
mb
20260504150831 20 265 8.0 16.1 0.00 0.00 0.00 49 1015.9
20260504150328 20 307 6.4 11.3 0.00 0.00 0.00 50 1016.0
20260504141258 16 160 3.2 9.7 0.00 0.00 0.00 58 1015.9
20260504140755 16 223 6.4 11.3 0.00 0.00 0.00 58 1015.7
20260504140250 16 168 1.6 3.2 0.00 0.00 0.00 60 1015.7
20260504130719 12 202 4.8 6.4 0.00 0.00 0.00 74 1015.9
20260504130215 12 232 1.6 4.8 0.00 0.00 0.00 76 1015.5
20260504120139 7 175 0.0 1.6 0.00 0.00 0.00 90 1015.6
20260504110606 2 189 0.0 0.0 0.00 0.00 0.00 91 1015.4
20260504100528 2 189 0.0 1.6 0.00 0.00 0.00 90 1015.4
20260504081921 1 175 0.0 1.6 0.00 0.00 0.00 86 1015.2
20260504081418 1 189 0.0 0.0 0.00 0.00 0.00 86 1015.5
20260504080914 2 184 0.0 0.0 0.00 0.00 0.00 85 1015.3
20260504080411 2 184 0.0 0.0 0.00 0.00 0.00 85 1015.6
20260504070338 2 178 0.0 0.0 0.00 0.00 0.00 83 1015.5
20260504050715 4 180 0.0 0.0 0.00 0.00 0.00 77 1015.5
20260504050212 4 183 0.0 0.0 0.00 0.00 0.00 77 1015.7
20260504045709 4 180 0.0 0.0 0.00 0.00 0.00 77 1015.7
20260504045204 4 177 0.0 0.0 0.00 0.00 0.00 76 1015.6
20260504044702 4 157 1.6 1.6 0.00 0.00 0.00 76 1015.5
20260504044159 4 184 0.0 0.0 0.00 0.00 0.00 75 1015.7
20260504043656 4 184 0.0 0.0 0.00 0.00 0.00 75 1015.5
20260504043153 4 184 0.0 0.0 0.00 0.00 0.00 75 1015.6
20260504042650 5 178 0.0 0.0 0.00 0.00 0.00 74 1015.5
20260504042147 5 189 0.0 0.0 0.00 0.00 0.00 74 1015.5
20260504041642 5 183 0.0 1.6 0.00 0.00 0.00 74 1015.5
20260504041138 5 181 0.0 0.0 0.00 0.00 0.00 74 1015.5
20260504040636 5 179 0.0 0.0 0.00 0.00 0.00 73 1015.5
20260504040133 5 165 1.6 1.6 0.00 0.00 0.00 73 1015.4
20260504035629 5 180 0.0 0.0 0.00 0.00 0.00 73 1015.4
20260504035126 5 181 0.0 0.0 0.00 0.00 0.00 72 1015.4
20260504034624 5 187 0.0 0.0 0.00 0.00 0.00 72 1015.3
20260504034121 5 176 0.0 0.0 0.00 0.00 0.00 72 1015.3
20260504033619 6 182 0.0 0.0 0.00 0.00 0.00 71 1015.1
20260504033116 6 182 0.0 1.6 0.00 0.00 0.00 71 1015.3
20260504032612 6 141 1.6 3.2 0.00 0.00 0.00 71 1015.5
20260504032109 6 132 3.2 3.2 0.00 0.00 0.00 70 1015.3
20260504031606 6 165 0.0 1.6 0.00 0.00 0.00 70 1015.4
20260504031103 6 163 0.0 0.0 0.00 0.00 0.00 70 1015.4
20260504030559 6 175 0.0 0.0 0.00 0.00 0.00 70 1015.3
20260504030056 6 177 0.0 0.0 0.00 0.00 0.00 70 1015.5
20260504025553 7 154 0.0 3.2 0.00 0.00 0.00 69 1015.4
20260504025050 7 165 0.0 1.6 0.00 0.00 0.00 68 1015.6
20260504024547 7 171 0.0 1.6 0.00 0.00 0.00 67 1015.7
20260504024044 8 179 0.0 0.0 0.00 0.00 0.00 66 1015.6
20260504023540 8 153 1.6 1.6 0.00 0.00 0.00 66 1015.6
20260504023036 7 162 1.6 3.2 0.00 0.00 0.00 66 1015.5
20260504022532 7 132 3.2 3.2 0.00 0.00 0.00 66 1015.6
20260504022029 8 181 0.0 1.6 0.00 0.00 0.00 66 1015.6
20260504021526 8 125 3.2 4.8 0.00 0.00 0.00 66 1015.3
20260504021023 8 141 3.2 3.2 0.00 0.00 0.00 66 1015.4
20260504020520 8 66 3.2 3.2 0.00 0.00 0.00 66 1015.2
20260504020017 8 98 1.6 3.2 0.00 0.00 0.00 65 1015.1
20260504015513 8 154 1.6 1.6 0.00 0.00 0.00 64 1015.3
20260504015009 9 76 3.2 3.2 0.00 0.00 0.00 63 1015.1
20260504014505 9 143 1.6 3.2 0.00 0.00 0.00 62 1015.2
20260504014003 9 154 1.6 1.6 0.00 0.00 0.00 61 1015.2
20260504013501 10 169 0.0 1.6 0.00 0.00 0.00 59 1014.7
20260504012956 10 185 0.0 3.2 0.00 0.00 0.00 58 1014.6
20260504012455 10 127 3.2 3.2 0.00 0.00 0.00 57 1014.8
20260504011952 10 135 1.6 3.2 0.00 0.00 0.00 57 1014.5
20260504011448 10 153 0.0 1.6 0.00 0.00 0.00 56 1014.8
20260504010944 11 173 0.0 0.0 0.00 0.00 0.00 55 1014.5
20260504010441 11 151 1.6 4.8 0.00 0.00 0.00 54 1014.6
20260504005936 11 147 1.6 1.6 0.00 0.00 0.00 53 1014.6
20260504005433 11 143 3.2 3.2 0.00 0.00 0.00 52 1014.4
20260504004931 12 183 0.0 1.6 0.00 0.00 0.00 50 1014.4
20260504004429 12 163 1.6 1.6 0.00 0.00 0.00 48 1014.4
20260504003925 13 147 1.6 1.6 0.00 0.00 0.00 47 1014.5
20260504003422 13 135 1.6 3.2 0.00 0.00 0.00 47 1014.0
20260504002918 13 137 0.0 3.2 0.00 0.00 0.00 48 1014.4
20260504002415 13 124 1.6 3.2 0.00 0.00 0.00 48 1014.3
20260504001913 13 146 1.6 3.2 0.00 0.00 0.00 46 1014.4
20260504001410 13 146 1.6 3.2 0.00 0.00 0.00 46 1014.0
20260504000906 13 146 3.2 3.2 0.00 0.00 0.00 46 1013.8
20260504000404 15 157 1.6 3.2 0.00 0.00 0.00 43 1014.1
20260503235901 15 187 0.0 1.6 0.00 0.00 0.00 39 1013.9
20260503235359 16 203 0.0 0.0 0.00 0.00 0.00 38 1013.9
20260503234856 16 203 0.0 0.0 0.00 0.00 0.00 37 1013.8
20260503234354 17 206 1.6 3.2 0.00 0.00 0.00 36 1014.0
20260503233851 17 230 3.2 4.8 0.00 0.00 0.00 35 1013.8
20260503233348 17 204 3.2 6.4 0.00 0.00 0.00 35 1013.9
20260503232844 17 232 3.2 6.4 0.00 0.00 0.00 34 1013.8
20260503232341 18 220 4.8 6.4 0.00 0.00 0.00 33 1013.7
20260503231839 18 236 4.8 4.8 0.00 0.00 0.00 33 1013.7
20260503231336 18 220 4.8 9.7 0.00 0.00 0.00 33 1013.6
20260503230832 18 222 6.4 9.7 0.00 0.00 0.00 32 1013.7
20260503230329 18 219 4.8 6.4 0.00 0.00 0.00 32 1013.6
20260503225827 18 239 1.6 4.8 0.00 0.00 0.00 32 1013.7
20260503225322 18 179 3.2 9.7 0.00 0.00 0.00 32 1013.6
20260503224819 18 230 6.4 9.7 0.00 0.00 0.00 32 1013.9
20260503224316 18 181 8.0 12.9 0.00 0.00 0.00 32 1013.7
20260503223814 18 210 9.7 12.9 0.00 0.00 0.00 32 1013.8
20260503223311 18 209 6.4 12.9 0.00 0.00 0.00 31 1013.8
20260503222807 18 216 4.8 9.7 0.00 0.00 0.00 31 1014.0
20260503222306 18 230 6.4 11.3 0.00 0.00 0.00 30 1013.9
20260503221803 18 153 3.2 14.5 0.00 0.00 0.00 29 1013.9
20260503221301 18 233 6.4 17.7 0.00 0.00 0.00 29 1013.9
20260503220757 20 245 11.3 14.5 0.00 0.00 0.00 28 1013.7
20260503220254 20 206 8.0 9.7 0.00 0.00 0.00 27 1013.7
20260503215751 20 192 1.6 9.7 0.00 0.00 0.00 26 1013.9
20260503215248 20 208 1.6 6.4 0.00 0.00 0.00 26 1013.8
20260503214746 20 202 6.4 9.7 0.00 0.00 0.00 26 1013.8
20260503214243 20 218 4.8 6.4 0.00 0.00 0.00 26 1014.1
20260503213741 20 215 4.8 6.4 0.00 0.00 0.00 26 1014.0
20260503213238 19 192 0.0 4.8 0.00 0.00 0.00 26 1013.9
20260503212734 20 219 9.7 12.9 0.00 0.00 0.00 27 1014.1
20260503212232 18 162 6.4 12.9 0.00 0.00 0.00 26 1014.3
20260503211730 20 243 8.0 17.7 0.00 0.00 0.00 26 1014.4
20260503211226 19 194 1.6 9.7 0.00 0.00 0.00 26 1014.3
20260503210721 19 212 6.4 17.7 0.00 0.00 0.00 26 1014.5
20260503210219 20 218 6.4 11.3 0.00 0.00 0.00 27 1014.5
20260503205714 20 220 4.8 12.9 0.00 0.00 0.00 26 1014.5
20260503205210 20 273 4.8 11.3 0.00 0.00 0.00 27 1014.7
20260503204707 19 233 3.2 6.4 0.00 0.00 0.00 26 1014.5
20260503204205 19 232 8.0 12.9 0.00 0.00 0.00 26 1014.6
20260503203702 18 210 4.8 11.3 0.00 0.00 0.00 25 1014.6
20260503203200 20 148 6.4 12.9 0.00 0.00 0.00 25 1014.8
20260503202656 19 224 4.8 6.4 0.00 0.00 0.00 26 1014.7
20260503202154 18 203 4.8 11.3 0.00 0.00 0.00 25 1014.7
20260503201652 19 225 12.9 14.5 0.00 0.00 0.00 25 1014.9
20260503201149 20 207 11.3 12.9 0.00 0.00 0.00 25 1015.0
20260503200645 20 190 0.0 1.6 0.00 0.00 0.00 25 1015.0
20260503200142 19 186 0.0 14.5 0.00 0.00 0.00 25 1015.2
20260503195639 18 225 1.6 6.4 0.00 0.00 0.00 25 1015.0
20260503195136 18 248 8.0 17.7 0.00 0.00 0.00 26 1015.1
20260503194633 18 244 8.0 11.3 0.00 0.00 0.00 25 1015.1
20260503194128 18 219 3.2 11.3 0.00 0.00 0.00 25 1015.1
20260503193625 18 88 8.0 11.3 0.00 0.00 0.00 25 1015.3
20260503193121 19 201 3.2 12.9 0.00 0.00 0.00 26 1015.5
20260503192616 18 304 4.8 11.3 0.00 0.00 0.00 27 1015.5
20260503192112 18 219 6.4 11.3 0.00 0.00 0.00 26 1015.5
20260503191609 17 207 6.4 17.7 0.00 0.00 0.00 26 1015.5
20260503191106 18 217 4.8 12.9 0.00 0.00 0.00 26 1015.8
20260503190604 18 170 8.0 14.5 0.00 0.00 0.00 26 1015.6
20260503190101 18 197 9.7 11.3 0.00 0.00 0.00 26 1015.8
20260503185557 18 206 1.6 6.4 0.00 0.00 0.00 25 1015.8
20260503185056 18 219 8.0 12.9 0.00 0.00 0.00 25 1016.2
20260503184552 18 201 3.2 12.9 0.00 0.00 0.00 26 1015.8
20260503184049 18 163 1.6 4.8 0.00 0.00 0.00 26 1016.0
20260503183546 17 214 3.2 9.7 0.00 0.00 0.00 27 1016.1
20260503183043 17 307 9.7 14.5 0.00 0.00 0.00 27 1016.2
20260503182541 17 231 11.3 14.5 0.00 0.00 0.00 27 1016.3
20260503182039 17 249 6.4 14.5 0.00 0.00 0.00 27 1016.3
20260503181536 17 216 11.3 20.9 0.00 0.00 0.00 27 1016.4
20260503181032 16 223 6.4 9.7 0.00 0.00 0.00 26 1016.5
20260503180529 16 199 0.0 4.8 0.00 0.00 0.00 26 1016.8
20260503180027 17 247 8.0 14.5 0.00 0.00 0.00 27 1016.8
20260503175524 17 202 4.8 6.4 0.00 0.00 0.00 27 1016.7
20260503175021 17 229 4.8 14.5 0.00 0.00 0.00 28 1016.7
20260503174519 16 278 3.2 12.9 0.00 0.00 0.00 27 1016.7
20260503174014 17 308 6.4 14.5 0.00 0.00 0.00 27 1017.1
20260503173509 17 299 4.8 12.9 0.00 0.00 0.00 28 1016.8
20260503173006 16 245 1.6 6.4 0.00 0.00 0.00 27 1017.1
20260503172504 17 238 9.7 11.3 0.00 0.00 0.00 29 1017.4
20260503172001 16 167 0.0 3.2 0.00 0.00 0.00 30 1017.2
20260503171457 16 53 4.8 9.7 0.00 0.00 0.00 29 1017.5
20260503170954 16 171 0.0 11.3 0.00 0.00 0.00 31 1017.4
20260503170450 16 204 1.6 9.7 0.00 0.00 0.00 32 1017.4